weather.gov     
National Weather Service

Terminal Aerodrome Forecast
NWS Homepage
This page is being discontinued on March 12, 2014.
The same data is available at this site. Please update your bookmarks.
Thank you, and we apologize for the inconvenience.
Please send an email to SR-SRH.Webmaster@noaa.gov with any concerns.


Current Version
Previous Version:    01  02  03  04  05  06  07  08  09  10  11  12  13  14  15  16  17  18  19  20  21  22  23  24  25  26  27  
[Printable]
287
FTUS41 KRNK 011727
TAFLYH
TAF
KLYH 011727Z 0118/0218 14010KT P6SM BKN120
     FM020000 14006KT P6SM -RA OVC060
     FM020400 18008KT 6SM -RA BR OVC025
     FM020700 20006KT 2SM RA BR OVC007
     FM021300 24010KT P6SM OVC035
     FM021600 28015G25KT P6SM BKN050=




287
FTUS41 KRNK 011727
TAFLYH
TAF
KLYH 011727Z 0118/0218 14010KT P6SM BKN120
     FM020000 14006KT P6SM -RA OVC060
     FM020400 18008KT 6SM -RA BR OVC025
     FM020700 20006KT 2SM RA BR OVC007
     FM021300 24010KT P6SM OVC035
     FM021600 28015G25KT P6SM BKN050=


U.S. Dept. of Commerce
NOAA National Weather Service
1325 East West Highway
Silver Spring, MD 20910
E-mail: w-nws.webmaster@noaa.gov
Page last modified: May 16, 2007
NATIONAL WEATHER SERVICE: for Safety, for Work, for Fun - FOR LIFE